Orbital Elements at Epoch 2459200.5 (2020-Dec-17.0) TDB
Reference: JPL 22 (heliocentric ecliptic J2000)
Element | Value | Uncertainty (1-sigma) | Units |
e | .1894272439779244 | 3.4261e-08 | |
a | 2.440199331844433 | 8.8434e-09 | au |
q | 1.977959097656369 | 8.521e-08 | au |
i | 2.131350703749584 | 5.2951e-06 | deg |
node | 199.9917716382876 | 0.00010653 | deg |
peri | 216.4287524059573 | 0.00010771 | deg |
M | 176.8868699920044 | 1.6412e-05 | deg |
tp | 2458516.384423217570 (2019-Feb-01.88442322) | 6.1632e-05 | TDB |
period | 1392.311411541214 3.81 | 7.5687e-06 2.072e-08 | d yr |
n | .2585628452197338 | 1.4056e-09 | deg/d |
Q | 2.902439566032496 | 1.0519e-08 | au |
|
| | Orbit Determination Parameters
Additional Information
|